[[{"header":{"parameterUnit":"m.s-1","parameterCategory":1,"la1":30.2991,"la2":30.254,"lo1":-89.0895,"lo2":-89.0444,"dy":0.0017,"dx":0.0017,"nx":28,"ny":28,"refTime":"2024-10-11T21:00:00:Z","depth":0,"parameterNumber":2,"parameterNumberName":"U-component_of_WINDS"},"data":[0,0,0,0,0,0,0,0,0,0,0,0,0,0,0,0,0,0,0,0,0,0,0,0,0,0,0,0,0,0,0,0,0,0,0,0,0,0,0,0,0,0,0,0,0,0,0,0,0,0,0,0,0,0,0,0,0,0,-1.2714,-1.2715,0,-1.2813,-1.2814,-1.2815,-1.2817,-1.2816,-1.2815,-1.2814,-1.292,-1.2924,-1.2928,0,0,0,0,0,0,0,0,0,0,0,0,0,-1.2533,-1.2536,-1.2714,-1.2715,-1.2717,-1.2813,-1.2814,-1.2816,-1.2818,-1.2816,-1.2815,-1.2813,-1.2919,-1.2924,-1.2928,0,0,0,0,0,0,0,0,0,0,0,0,0,-1.262,-1.2537,-1.2714,-1.2729,-1.2731,-1.2813,-1.2814,-1.2816,-1.2818,-1.2816,-1.2814,-1.2813,-1.2917,-1.2923,-1.2929,-1.3003,0,0,-1.2947,-1.295,0,0,0,0,0,0,0,0,-1.2615,-1.2627,-1.2726,-1.2728,-1.2731,-1.2801,-1.2789,-1.2879,-1.2818,-1.2785,-1.2814,-1.2812,-1.2882,-1.2891,-1.2914,-1.3008,-1.3013,-1.2948,-1.2951,-1.2954,-1.2956,0,0,0,0,0,0,0,-1.2609,-1.2622,-1.2753,-1.2727,-1.273,-1.2733,-1.2743,-1.2806,-1.2843,-1.2788,-1.2788,-1.28,-1.2884,-1.2908,-1.2916,-1.3014,-1.2948,-1.2953,-1.2957,-1.2959,-1.3177,-1.3179,0,0,0,0,0,0,-1.2599,-1.2617,-1.275,-1.2756,-1.2667,-1.2738,-1.2749,-1.278,-1.2843,-1.285,-1.2801,-1.28,-1.2899,-1.2909,-1.292,-1.3012,-1.2954,-1.296,-1.2963,-1.3175,-1.3178,-1.318,0,0,0,0,0,0,-1.2595,-1.2611,-1.2746,-1.2687,-1.2704,-1.2743,-1.2778,-1.2783,-1.2808,-1.2852,-1.286,-1.2819,-1.2898,-1.2912,-1.2983,-1.3016,-1.2962,-1.2968,-1.3173,-1.3176,-1.3179,-1.3196,0,0,0,0,0,0,-1.259,-1.261,-1.2636,-1.2688,-1.2708,-1.2805,-1.278,-1.2787,-1.2818,-1.2816,-1.2871,-1.2879,-1.2897,-1.2974,-1.2989,-1.3023,-1.2972,-1.317,-1.3174,-1.3178,-1.3193,-1.32,-1.3206,0,0,0,0,0,-1.2584,-1.2638,-1.2638,-1.2654,-1.2742,-1.2807,-1.2819,-1.2838,-1.282,-1.2849,-1.2878,-1.2877,-1.301,-1.2981,-1.2998,-1.3035,-1.3168,-1.3173,-1.3178,-1.319,-1.3199,-1.3206,0,0,0,0,0,0,-1.2591,-1.2645,-1.2645,-1.2718,-1.2758,-1.2807,-1.2844,-1.2846,-1.2893,-1.289,-1.2913,-1.2926,-1.2997,-1.3023,-1.299,-1.3111,-1.3087,-1.3096,-1.3091,-1.3099,-1.3106,-1.3098,-1.2977,0,0,0,0,0,-1.2601,-1.2648,-1.2693,-1.2753,-1.2773,-1.2805,-1.2834,-1.2845,-1.2888,-1.2906,-1.294,-1.2983,-1.3035,-1.3069,-1.3119,-1.3197,-1.321,-1.3231,-1.3238,-1.3243,-1.325,-1.3295,-1.3305,-1.3196,-1.3196,-1.3196,0,0,-1.2622,-1.2658,-1.2686,-1.2755,-1.2787,-1.2838,-1.2819,-1.2872,-1.291,-1.2914,-1.2983,-1.301,-1.306,-1.3136,-1.3171,-1.316,-1.3283,-1.3249,-1.3253,-1.3257,-1.3301,-1.3312,-1.3321,-1.32,-1.3199,-1.3199,0,0,-1.2687,-1.2717,-1.2771,-1.2804,-1.2853,-1.2874,-1.2887,-1.2937,-1.2954,-1.3024,-1.3028,-1.3075,-1.3163,-1.3199,-1.3229,-1.331,-1.3311,-1.3326,-1.3359,-1.3403,-1.3411,-1.3419,-1.3449,-1.3459,-1.3333,-1.3333,-1.3333,0,-1.2707,-1.278,-1.2799,-1.2852,-1.2883,-1.2889,-1.2944,-1.2976,-1.304,-1.3062,-1.3049,-1.3161,-1.3195,-1.328,-1.3299,-1.3323,-1.334,-1.3319,-1.3408,-1.3416,-1.3424,-1.3453,-1.3464,-1.3334,-1.3334,-1.3334,-1.3334,0,-1.2804,-1.2856,-1.2893,-1.2953,-1.2989,-1.3043,-1.3072,-1.3106,-1.3115,-1.3139,-1.3211,-1.3252,-1.3311,-1.3332,-1.3342,-1.3419,-1.3411,-1.3403,-1.3379,-1.3435,-1.3463,-1.3474,-1.3336,-1.3336,-1.3335,-1.3335,0,0,-1.2875,-1.2945,-1.2958,-1.2986,-1.3042,-1.3083,-1.3139,-1.3195,-1.3225,-1.3269,-1.3318,-1.3394,-1.3387,-1.3421,-1.3435,-1.3473,-1.3536,-1.3461,-1.3463,-1.3474,-1.3626,-1.3632,-1.3644,-1.3538,-1.354,-1.3542,-1.3622,0,-1.2945,-1.3042,-1.3061,-1.3147,-1.3196,-1.3202,-1.3252,-1.3292,-1.3316,-1.3363,-1.339,-1.3444,-1.343,-1.3451,-1.3489,-1.352,-1.3567,-1.3515,-1.3585,-1.3588,-1.3572,-1.3659,-1.3665,-1.3739,-1.3633,-1.3635,-1.3636,0,-1.304,-1.3086,-1.3176,-1.3226,-1.3247,-1.329,-1.3345,-1.3389,-1.3436,-1.3451,-1.349,-1.35,-1.3561,-1.3535,-1.362,-1.3584,-1.3615,-1.3635,-1.3638,-1.3646,-1.3615,-1.3669,-1.3762,-1.3774,-1.3653,-1.3652,-1.3651,0,-1.3084,-1.3168,-1.3233,-1.3256,-1.3316,-1.3347,-1.3374,-1.3419,-1.3453,-1.3501,-1.3524,-1.3579,-1.361,-1.3654,-1.368,-1.3658,-1.3764,-1.374,-1.378,-1.378,-1.3802,-1.38,-1.3902,-1.3821,-1.3821,-1.3821,-1.382,0,-1.3161,-1.3216,-1.3253,-1.3293,-1.3356,-1.3378,-1.3441,-1.3468,-1.3508,-1.3555,-1.3565,-1.361,-1.3641,-1.3691,-1.3712,-1.3781,-1.3795,-1.381,-1.3815,-1.3809,-1.3807,-1.3829,-1.3825,-1.3824,-1.3823,-1.3822,-1.3822,0,-1.3219,-1.3246,-1.3318,-1.3369,-1.3383,-1.3428,-1.3472,-1.3513,-1.3538,-1.3597,-1.3613,-1.3652,-1.3711,-1.3742,-1.3816,-1.383,-1.3908,-1.391,-1.3891,-1.3894,-1.3933,-1.3929,-1.4053,-1.4071,-1.3977,-1.3978,-1.3978,0,-1.3267,-1.3309,-1.3365,-1.3396,-1.3423,-1.3474,-1.3508,-1.3533,-1.3569,-1.3627,-1.3661,-1.372,-1.3769,-1.3864,-1.3901,-1.3958,-1.3962,-1.4001,-1.3971,-1.3964,-1.3964,-1.3961,-1.3966,-1.4007,-1.4008,-1.4008,-1.4009,0,-1.3348,-1.336,-1.3407,-1.3461,-1.3501,-1.3544,-1.3587,-1.3613,-1.3646,-1.3686,-1.3745,-1.3783,-1.3859,-1.3919,-1.3979,-1.401,-1.4016,-1.4018,-1.4031,-1.4026,-1.4014,-1.4022,-1.3907,-1.4015,-1.4015,-1.4014,-1.4014,-1.4014,-1.3403,-1.3442,-1.3487,-1.3541,-1.3576,-1.3616,-1.3657,-1.3687,-1.3736,-1.3799,-1.3811,-1.3875,-1.3924,-1.4006,-1.4038,-1.409,-1.4082,-1.41,-1.4105,-1.4109,-1.4111,-1.4005,-1.4101,-1.4101,-1.4101,-1.4101,-1.4101,0,-1.3486,-1.3516,-1.3565,-1.3624,-1.3667,-1.3668,-1.3716,-1.3752,-1.3808,-1.3852,-1.39,-1.397,-1.4029,-1.407,-1.413,-1.4164,-1.4169,-1.4179,-1.4177,-1.4185,-1.4114,-1.4098,-1.4175,-1.4175,-1.4175,-1.4175,-1.4175,-1.4175,-1.3534,-1.36,-1.3617,-1.3701,-1.3731,-1.3793,-1.382,-1.3859,-1.3894,-1.3971,-1.4019,-1.4046,-1.409,-1.4154,-1.4208,-1.4219,-1.4242,-1.4252,-1.4264,-1.4197,-1.4189,-1.4182,-1.4166,-1.4257,-1.4257,-1.433,-1.433,-1.4331]},{"header":{"parameterUnit":"m.s-1","parameterCategory":1,"la1":30.2991,"la2":30.254,"lo1":-89.0895,"lo2":-89.0444,"dy":0.0017,"dx":0.0017,"nx":28,"ny":28,"refTime":"2024-10-11T21:00:00:Z","depth":0,"parameterNumber":3,"parameterNumberName":"V-component_of_WINDS"},"data":[0,0,0,0,0,0,0,0,0,0,0,0,0,0,0,0,0,0,0,0,0,0,0,0,0,0,0,0,0,0,0,0,0,0,0,0,0,0,0,0,0,0,0,0,0,0,0,0,0,0,0,0,0,0,0,0,0,0,0.0566,0.0565,0,0.0458,0.0457,0.0455,0.0386,0.0386,0.0385,0.0385,0.0271,0.0268,0.0265,0,0,0,0,0,0,0,0,0,0,0,0,0,0.0709,0.0707,0.0566,0.0565,0.0563,0.0458,0.0457,0.0455,0.0386,0.0386,0.0385,0.0385,0.0272,0.0268,0.0265,0,0,0,0,0,0,0,0,0,0,0,0,0,0.0629,0.0706,0.0566,0.0516,0.0511,0.0458,0.0457,0.0455,0.0386,0.0386,0.0385,0.0385,0.0273,0.0269,0.0265,0.0252,0,0,0.0253,0.0251,0,0,0,0,0,0,0,0,0.0633,0.0623,0.0525,0.052,0.0514,0.0435,0.0465,0.0387,0.0387,0.0434,0.0385,0.0384,0.0326,0.0317,0.0298,0.0247,0.0242,0.0252,0.025,0.0248,0.0247,0,0,0,0,0,0,0,0.0639,0.0628,0.0523,0.0524,0.0517,0.0498,0.0486,0.045,0.0384,0.0429,0.0424,0.0413,0.0322,0.0302,0.0295,0.024,0.0252,0.0249,0.0246,0.0245,0.0172,0.0172,0,0,0,0,0,0,0.0653,0.0633,0.0527,0.052,0.0573,0.0496,0.0483,0.0461,0.0384,0.0372,0.0413,0.041,0.0309,0.03,0.0291,0.027,0.0248,0.0244,0.0242,0.0171,0.0172,0.0172,0,0,0,0,0,0,0.0656,0.0644,0.0531,0.0575,0.0559,0.0494,0.047,0.0459,0.0439,0.0372,0.036,0.0405,0.0308,0.0296,0.0262,0.0265,0.0243,0.0239,0.0171,0.0172,0.0172,0.023,0,0,0,0,0,0,0.0661,0.0646,0.0641,0.0575,0.0557,0.0506,0.0471,0.0457,0.0433,0.0427,0.0361,0.035,0.0307,0.0269,0.0258,0.0259,0.0236,0.017,0.0171,0.0172,0.0227,0.0232,0.0236,0,0,0,0,0,0.0666,0.0661,0.0641,0.0629,0.055,0.0506,0.0496,0.0448,0.0433,0.0427,0.0384,0.0352,0.0267,0.0266,0.0254,0.0253,0.017,0.0171,0.0172,0.0225,0.0231,0.0236,0,0,0,0,0,0,0.0728,0.0652,0.0629,0.0603,0.0562,0.0495,0.0486,0.0456,0.0417,0.0413,0.0354,0.034,0.0312,0.0279,0.0279,0.0236,0.0214,0.0213,0.0259,0.0264,0.0269,0.0277,0.0232,0,0,0,0,0,0.0739,0.0711,0.0645,0.0628,0.0609,0.0551,0.053,0.0497,0.0451,0.0433,0.0388,0.0344,0.0307,0.0284,0.0246,0.0222,0.0206,0.0216,0.0221,0.0225,0.0224,0.0207,0.0211,0.0176,0.0176,0.0176,0,0,0.0761,0.0716,0.0701,0.064,0.0604,0.0575,0.0537,0.0508,0.0485,0.0428,0.0394,0.0359,0.0305,0.0276,0.0261,0.0248,0.023,0.0226,0.023,0.0227,0.0209,0.0212,0.0215,0.0177,0.0176,0.0176,0,0,0.0785,0.0749,0.0731,0.0696,0.0642,0.0604,0.06,0.0537,0.0512,0.0476,0.0433,0.0404,0.0342,0.0306,0.0279,0.029,0.0258,0.0279,0.0303,0.0288,0.0291,0.0293,0.0295,0.0297,0.0279,0.0279,0.0279,0,0.0819,0.0774,0.0725,0.0698,0.0672,0.062,0.06,0.0568,0.0505,0.0487,0.0474,0.0395,0.0356,0.0316,0.0319,0.03,0.0292,0.0286,0.0295,0.0296,0.0297,0.0299,0.03,0.0282,0.0282,0.0281,0.0281,0,0.0817,0.0787,0.0779,0.072,0.0692,0.0669,0.0615,0.0593,0.0562,0.0525,0.0488,0.0439,0.0391,0.0379,0.0348,0.0335,0.0329,0.0306,0.0282,0.0304,0.0305,0.0305,0.0286,0.0285,0.0284,0.0283,0,0,0.0878,0.0792,0.079,0.0762,0.0699,0.0674,0.0648,0.0601,0.0583,0.0541,0.0517,0.0465,0.0444,0.0414,0.0378,0.0365,0.0375,0.0343,0.0341,0.035,0.0356,0.0373,0.0375,0.0354,0.0353,0.0353,0.036,0,0.0892,0.0844,0.0799,0.0766,0.0737,0.0687,0.0664,0.0623,0.0587,0.0556,0.0515,0.048,0.0454,0.0436,0.0421,0.0377,0.0375,0.0376,0.0329,0.0328,0.0343,0.0375,0.0393,0.0401,0.036,0.036,0.036,0,0.0903,0.0864,0.0829,0.0768,0.0754,0.0735,0.0688,0.0659,0.061,0.0585,0.0551,0.0514,0.0482,0.0463,0.0418,0.042,0.0397,0.0373,0.0372,0.0365,0.0345,0.0368,0.0403,0.0404,0.036,0.036,0.036,0,0.0949,0.0888,0.0859,0.0837,0.0765,0.0753,0.0722,0.0673,0.0647,0.0606,0.0588,0.0544,0.0519,0.0484,0.0435,0.0426,0.0395,0.0372,0.0372,0.0373,0.0367,0.0368,0.0398,0.0355,0.0355,0.0354,0.0354,0,0.0969,0.095,0.0879,0.0861,0.0837,0.0784,0.0761,0.0726,0.0682,0.0655,0.061,0.0585,0.0523,0.049,0.0452,0.0419,0.0409,0.0386,0.0376,0.039,0.0393,0.0374,0.0371,0.0355,0.0355,0.0355,0.0355,0,0.1017,0.0969,0.0933,0.0869,0.0852,0.0837,0.0781,0.0761,0.0723,0.069,0.0679,0.0618,0.0578,0.0526,0.0468,0.0442,0.0414,0.0399,0.0431,0.0425,0.0427,0.0428,0.0446,0.0445,0.0404,0.0404,0.0405,0,0.1033,0.1016,0.095,0.093,0.0901,0.0868,0.0842,0.0789,0.0764,0.0707,0.0693,0.0649,0.0611,0.0549,0.0499,0.0454,0.0437,0.0446,0.043,0.0444,0.0435,0.0437,0.0434,0.045,0.0451,0.0452,0.0452,0,0.1065,0.1042,0.1007,0.0964,0.0934,0.0897,0.0858,0.0843,0.0782,0.0755,0.0714,0.0685,0.0626,0.0583,0.0532,0.0499,0.0465,0.0458,0.0455,0.0469,0.0488,0.0476,0.0441,0.0458,0.0457,0.0457,0.0456,0.0456,0.1096,0.1079,0.103,0.0992,0.0957,0.0922,0.0899,0.0859,0.0824,0.0773,0.0744,0.0703,0.0653,0.0581,0.0549,0.0516,0.0503,0.0499,0.0498,0.0498,0.0502,0.0494,0.0506,0.0506,0.0506,0.0506,0.0505,0,0.1125,0.1092,0.1057,0.1004,0.0974,0.0947,0.0901,0.0878,0.0843,0.08,0.0764,0.0715,0.0673,0.062,0.0573,0.0556,0.0539,0.0546,0.0546,0.0538,0.0517,0.0523,0.056,0.056,0.056,0.056,0.056,0.056,0.1137,0.1107,0.1078,0.1029,0.0994,0.0955,0.0931,0.0897,0.0863,0.0811,0.0776,0.0742,0.0695,0.0644,0.0603,0.0589,0.0573,0.0584,0.0564,0.0545,0.054,0.0535,0.0541,0.0581,0.0581,0.0589,0.0589,0.0589]}]]